Du Bois, PA

9:35 AM EST on November 21, 2017 (GMT -0500)
Du Bois-Jefferson County

Weather History for KDUJ - September, 2012

Change the Weather History Date:

Wednesday, September 26, 2012

  Actual Average Record
Temperature  
Mean Temperature 58 °F 56 °F  
Max Temperature 61 °F 66 °F 86 °F (2017)
Min Temperature 55 °F 46 °F 34 °F (1965)
Degree Days  
Heating Degree Days 7 10  
Month to date heating degree days 155 141  
Since 1 July heating degree days 177 203  
Cooling Degree Days 0 0  
Month to date cooling degree days 58 28  
Year to date cooling degree days 545 359  
Growing Degree Days 7 (Base 50)    
Moisture  
Dew Point 57 °F    
Average Humidity 92    
Maximum Humidity 97    
Minimum Humidity 86    
Precipitation  
Precipitation 0.70 in 0.11 in 1.00 in (1986)
Month to date precipitation 3.46 3.20  
Year to date precipitation 32.81  
Sea Level Pressure  
Sea Level Pressure 30.05 in    
Wind  
Wind Speed 10 mph (SW)    
Max Wind Speed 17 mph    
Max Gust Speed 23 mph    
Visibility 5 miles    
Events Rain    
T = Trace of Precipitation, MM = Missing Value Source: NWS Daily Summary

Daily Weather History Graph

Daily Weather History Graph

Search for Another Location

Airport or City:

Trip Planner

Search our weather history database for the weather conditions in past years. The results will help you decide how hot, cold, wet, or windy it might be!

Date:

Astronomy

Sep. 26, 2012 Rise Set
Actual Time 7:07 AM EDT 7:05 PM EDT
Civil Twilight 6:40 AM EDT 7:32 PM EDT
Nautical Twilight 6:08 AM EDT 8:04 PM EDT
Astronomical Twilight 5:35 AM EDT 8:37 PM EDT
Moon 5:05 PM EDT (9/26) 3:29 AM EDT (9/26)
Length of Visible Light 12h 52m
Length of Day
11h 57m
Waxing Gibbous, 88% of the Moon is Illuminated
Sep 26
Waxing Gibbous
Sep 29
Full
Oct 8
Last Quarter
Oct 15
New
Oct 21
First Quarter

Hourly Weather History & Observations

Time (EDT) Temp. Dew Point Humidity Pressure Visibility Wind Dir Wind Speed Gust Speed Precip Events Conditions
12:19 AM 53.6 °F 51.8 °F 94% 30.04 in 10.0 mi SW 5.8 mph - 0.00 in   Overcast
12:34 AM 55.4 °F 53.6 °F 94% 30.03 in 10.0 mi SSW 5.8 mph - 0.00 in   Overcast
12:56 AM 55.0 °F 53.1 °F 93% 30.03 in 10.0 mi SSW 3.5 mph - 0.00 in   Overcast
1:30 AM 55.4 °F 51.8 °F 88% 30.03 in 10.0 mi SW 9.2 mph - N/A   Overcast
1:56 AM 55.9 °F 53.1 °F 90% 30.02 in 9.0 mi SW 10.4 mph - N/A   Overcast
2:56 AM 55.9 °F 54.0 °F 93% 30.02 in 8.0 mi SW 10.4 mph - N/A   Overcast
3:56 AM 55.9 °F 54.0 °F 93% 30.00 in 8.0 mi SW 4.6 mph - N/A   Overcast
4:56 AM 55.9 °F 54.0 °F 93% 30.01 in 10.0 mi SW 8.1 mph - N/A   Overcast
5:56 AM 57.0 °F 54.0 °F 89% 30.00 in 10.0 mi SSW 8.1 mph - N/A   Overcast
6:56 AM 57.0 °F 55.0 °F 93% 30.01 in 5.0 mi SSW 9.2 mph - N/A   Overcast
7:08 AM 57.2 °F 55.4 °F 94% 30.03 in 2.5 mi SW 9.2 mph - 0.01 in Rain Light Rain
7:16 AM 57.2 °F 55.4 °F 94% 30.03 in 5.0 mi SW 8.1 mph - 0.01 in   Overcast
7:44 AM 57.2 °F 55.4 °F 94% 30.02 in 2.0 mi SW 6.9 mph - 0.14 in Rain Light Rain
7:56 AM 57.2 °F 55.4 °F 94% 30.02 in 3.0 mi SW 4.6 mph - N/A Rain Light Rain
8:20 AM 57.2 °F 55.4 °F 94% 30.03 in 2.5 mi SW 9.2 mph - 0.04 in Rain Light Rain
8:29 AM 57.2 °F 55.4 °F 94% 30.03 in 8.0 mi SW 10.4 mph - 0.04 in Rain Light Rain
8:48 AM 57.2 °F 55.4 °F 94% 30.03 in 8.0 mi SW 11.5 mph 18.4 mph 0.04 in   Overcast
8:56 AM 57.9 °F 57.0 °F 97% 30.02 in 6.0 mi SW 11.5 mph - 0.04 in   Overcast
9:48 AM 59.0 °F 57.2 °F 94% 30.05 in 1.8 mi SW 13.8 mph - N/A   Overcast
9:56 AM 59.0 °F 57.0 °F 93% 30.04 in 2.0 mi SW 8.1 mph - N/A   Overcast
10:42 AM 59.0 °F 57.2 °F 94% 30.06 in 4.0 mi SW 11.5 mph 19.6 mph 0.01 in   Overcast
10:56 AM 59.0 °F 57.0 °F 93% 30.06 in 6.0 mi SW 9.2 mph - 0.01 in   Overcast
11:11 AM 59.0 °F 57.2 °F 94% 30.06 in 1.8 mi SW 11.5 mph 19.6 mph 0.01 in   Overcast
11:25 AM 59.0 °F 57.2 °F 94% 30.05 in 2.5 mi SW 12.7 mph - 0.01 in   Overcast
11:56 AM 59.0 °F 57.0 °F 93% 30.05 in 4.0 mi SW 12.7 mph 18.4 mph 0.03 in Rain Light Rain
12:18 PM 59.0 °F 57.2 °F 94% 30.06 in 1.8 mi SW 12.7 mph 19.6 mph 0.02 in Rain Light Rain
12:56 PM 60.1 °F 57.9 °F 93% 30.05 in 1.5 mi SW 9.2 mph - 0.20 in Rain Light Rain
1:13 PM 60.8 °F 57.2 °F 88% 30.06 in 2.5 mi SW 9.2 mph - 0.04 in Rain Light Rain
1:16 PM 60.8 °F 57.2 °F 88% 30.06 in 3.0 mi WSW 10.4 mph - 0.04 in Rain Light Rain
1:56 PM 60.1 °F 57.9 °F 93% 30.04 in 1.8 mi SW 9.2 mph - 0.07 in Rain Light Rain
2:03 PM 60.8 °F 57.2 °F 88% 30.05 in 3.0 mi SW 10.4 mph - 0.00 in Rain Light Rain
2:56 PM 61.0 °F 57.9 °F 90% 30.04 in 10.0 mi SW 11.5 mph 21.9 mph 0.00 in   Overcast
3:56 PM 61.0 °F 59.0 °F 93% 30.04 in 9.0 mi WSW 11.5 mph - N/A   Overcast
4:56 PM 61.0 °F 59.0 °F 93% 30.05 in 5.0 mi SW 11.5 mph - 0.02 in Rain Light Rain
5:09 PM 60.8 °F 59.0 °F 94% 30.05 in 5.0 mi SW 9.2 mph - 0.00 in   Overcast
5:56 PM 61.0 °F 59.0 °F 93% 30.06 in 7.0 mi WSW 11.5 mph - 0.00 in   Overcast
6:23 PM 60.8 °F 59.0 °F 94% 30.07 in 6.0 mi WSW 8.1 mph - 0.01 in Rain Light Rain
6:56 PM 61.0 °F 59.0 °F 93% 30.07 in 8.0 mi SW 10.4 mph - 0.02 in   Overcast
7:56 PM 61.0 °F 59.0 °F 93% 30.08 in 6.0 mi SW 11.5 mph - N/A   Overcast
8:18 PM 60.8 °F 59.0 °F 94% 30.10 in 2.0 mi WSW 11.5 mph - 0.03 in Rain Light Rain
8:33 PM 60.8 °F 59.0 °F 94% 30.10 in 5.0 mi SW 12.7 mph - 0.04 in   Overcast
8:56 PM 61.0 °F 59.0 °F 93% 30.09 in 5.0 mi SW 13.8 mph - 0.05 in   Overcast
9:13 PM 60.8 °F 59.0 °F 94% 30.09 in 5.0 mi SW 8.1 mph - 0.01 in   Overcast
9:56 PM 61.0 °F 59.0 °F 93% 30.09 in 5.0 mi SW 8.1 mph - 0.01 in   Overcast
10:14 PM 60.8 °F 59.0 °F 94% 30.11 in 5.0 mi WSW 8.1 mph - N/A   Overcast
10:56 PM 61.0 °F 59.0 °F 93% 30.10 in 6.0 mi West 12.7 mph - 0.07 in   Overcast
11:56 PM 61.0 °F 59.0 °F 93% 30.11 in 3.0 mi WSW 6.9 mph - 0.01 in   Overcast